When you browse on this site, cookies collect data to enhance your experience and personalize the content and advertising you see.
Visit our Privacy Policy to learn more. By continuing to use the site, you agree to this use of cookies and data.
  • In Portugal
  • List of Countries
  • For 7 days
  • Water Temperature
  • Satellite Maps
  • Weather Map
  • Weather Widgets
  • user-avatar
    Login

    Hourly Weather Wartule

    Today, 16 July, Tuesday

    Time Temperature Precipitation Wind Pressure Humidity
    00:00 +14°C° 0 mm 1 mps 750 mmHg 94%
    01:00 +13°C° 0 mm 1 mps 750 mmHg 95%
    02:00 +14°C° 0 mm 1 mps 749 mmHg 95%
    03:00 +14°C° 0 mm 1 mps 749 mmHg 94%
    04:00 +14°C° 0 mm 2 mps 748 mmHg 94%
    05:00 +14°C° 0.1 mm 2 mps 748 mmHg 89%
    06:00 +14°C° 0.1 mm 3 mps 748 mmHg 85%
    07:00 +14°C° 0.1 mm 4 mps 748 mmHg 81%
    08:00 +14°C° 0.2 mm 4 mps 748 mmHg 81%
    09:00 +14°C° 0.2 mm 4 mps 748 mmHg 81%
    10:00 +14°C° 0.2 mm 3 mps 748 mmHg 81%
    11:00 +15°C° 0.7 mm 4 mps 748 mmHg 80%
    12:00 +17°C° 0.7 mm 4 mps 747 mmHg 80%
    13:00 +17°C° 0.7 mm 5 mps 747 mmHg 79%
    14:00 +19°C° 0.3 mm 4 mps 747 mmHg 74%
    15:00 +19°C° 0.3 mm 4 mps 747 mmHg 69%
    16:00 +19°C° 0.3 mm 4 mps 748 mmHg 64%
    17:00 +18°C° 0.1 mm 3 mps 747 mmHg 69%
    18:00 +17°C° 0.1 mm 2 mps 747 mmHg 74%
    19:00 +16°C° 0.1 mm 1 mps 747 mmHg 78%
    20:00 +15°C° 0 mm 1 mps 747 mmHg 80%
    21:00 +14°C° 0 mm 2 mps 747 mmHg 82%
    22:00 +12°C° 0 mm 3 mps 747 mmHg 84%
    23:00 +12°C° 0.1 mm 3 mps 747 mmHg 85%

    Tomorrow, 17 July, Wednesday

    Time Temperature Precipitation Wind Pressure Humidity
    00:00 +13°C° 0.1 mm 3 mps 747 mmHg 87%
    01:00 +13°C° 0.1 mm 4 mps 747 mmHg 88%
    02:00 +12°C° 0 mm 4 mps 747 mmHg 90%
    03:00 +12°C° 0 mm 4 mps 747 mmHg 91%
    04:00 +11°C° 0 mm 4 mps 747 mmHg 92%
    05:00 +12°C° 0.1 mm 5 mps 747 mmHg 89%
    06:00 +13°C° 0.1 mm 6 mps 747 mmHg 86%
    07:00 +14°C° 0.1 mm 7 mps 747 mmHg 84%
    08:00 +15°C° 0.3 mm 6 mps 747 mmHg 81%
    09:00 +16°C° 0.3 mm 6 mps 748 mmHg 78%
    10:00 +16°C° 0.3 mm 6 mps 748 mmHg 75%
    11:00 +17°C° 0.1 mm 6 mps 748 mmHg 71%
    12:00 +17°C° 0.1 mm 6 mps 748 mmHg 66%
    13:00 +19°C° 0.1 mm 6 mps 748 mmHg 61%
    14:00 +19°C° 0 mm 6 mps 748 mmHg 62%
    15:00 +19°C° 0 mm 6 mps 748 mmHg 64%
    16:00 +17°C° 0 mm 6 mps 748 mmHg 65%
    17:00 +16°C° 0 mm 5 mps 748 mmHg 71%
    18:00 +16°C° 0 mm 5 mps 748 mmHg 77%
    19:00 +15°C° 0 mm 4 mps 748 mmHg 82%
    20:00 +14°C° 0 mm 4 mps 749 mmHg 84%
    21:00 +14°C° 0 mm 4 mps 749 mmHg 86%
    22:00 +13°C° 0 mm 4 mps 749 mmHg 88%
    23:00 +13°C° 0 mm 4 mps 749 mmHg 91%

    Day after tomorrow, 18 July, Thursday

    Time Temperature Precipitation Wind Pressure Humidity
    00:00 +12°C° 0 mm 3 mps 749 mmHg 94%
    01:00 +11°C° 0 mm 3 mps 749 mmHg 97%
    02:00 +11°C° 0 mm 3 mps 749 mmHg 97%
    03:00 +11°C° 0 mm 3 mps 749 mmHg 97%
    04:00 +11°C° 0 mm 3 mps 749 mmHg 98%
    05:00 +13°C° 0 mm 3 mps 749 mmHg 92%
    06:00 +16°C° 0 mm 3 mps 750 mmHg 87%
    07:00 +17°C° 0 mm 3 mps 750 mmHg 82%
    08:00 +19°C° 0 mm 4 mps 750 mmHg 76%
    09:00 +20°C° 0 mm 4 mps 750 mmHg 69%
    10:00 +21°C° 0 mm 4 mps 750 mmHg 62%
    11:00 +21°C° 0 mm 4 mps 750 mmHg 60%
    12:00 +22°C° 0 mm 4 mps 750 mmHg 58%
    13:00 +22°C° 0 mm 4 mps 750 mmHg 56%
    14:00 +22°C° 0 mm 4 mps 750 mmHg 58%
    15:00 +22°C° 0 mm 4 mps 750 mmHg 59%
    16:00 +21°C° 0 mm 4 mps 750 mmHg 61%
    17:00 +20°C° 0 mm 3 mps 750 mmHg 68%
    18:00 +19°C° 0 mm 3 mps 750 mmHg 75%
    19:00 +17°C° 0 mm 2 mps 750 mmHg 82%
    20:00 +16°C° 0 mm 1 mps 750 mmHg 86%
    21:00 +14°C° 0 mm 1 mps 751 mmHg 89%
    22:00 +13°C° 0 mm 1 mps 751 mmHg 93%
    23:00 +12°C° 0 mm 0 mps 751 mmHg 93%

    19 July, Friday

    Time Temperature Precipitation Wind Pressure Humidity
    00:00 +11°C° 0 mm 0 mps 751 mmHg 93%
    01:00 +11°C° 0 mm 0 mps 751 mmHg 92%
    02:00 +11°C° 0 mm 0 mps 751 mmHg 92%
    03:00 +11°C° 0 mm 0 mps 751 mmHg 92%
    04:00 +11°C° 0 mm 0 mps 751 mmHg 91%
    05:00 +13°C° 0 mm 0 mps 751 mmHg 85%
    06:00 +15°C° 0 mm 0 mps 751 mmHg 79%
    07:00 +16°C° 0 mm 0 mps 751 mmHg 73%
    08:00 +18°C° 0 mm 0 mps 751 mmHg 67%
    09:00 +20°C° 0 mm 0 mps 751 mmHg 62%
    10:00 +22°C° 0 mm 0 mps 751 mmHg 56%
    11:00 +22°C° 0 mm 0 mps 751 mmHg 54%
    12:00 +25°C° 0 mm 1 mps 751 mmHg 53%
    13:00 +25°C° 0 mm 1 mps 751 mmHg 52%
    14:00 +25°C° 0.1 mm 1 mps 751 mmHg 54%
    15:00 +25°C° 0.1 mm 1 mps 751 mmHg 55%
    16:00 +25°C° 0.1 mm 1 mps 751 mmHg 57%
    17:00 +23°C° 0.3 mm 1 mps 751 mmHg 64%
    18:00 +22°C° 0.3 mm 1 mps 751 mmHg 70%
    19:00 +21°C° 0.3 mm 1 mps 751 mmHg 77%
    20:00 +19°C° 0 mm 2 mps 751 mmHg 80%
    21:00 +17°C° 0 mm 2 mps 751 mmHg 82%
    22:00 +16°C° 0 mm 2 mps 751 mmHg 85%
    23:00 +16°C° 0 mm 2 mps 751 mmHg 85%

    20 July, Saturday

    Time Temperature Precipitation Wind Pressure Humidity
    00:00 +15°C° 0 mm 2 mps 751 mmHg 85%
    01:00 +15°C° 0 mm 2 mps 751 mmHg 86%
    02:00 +15°C° 0 mm 1 mps 751 mmHg 86%
    03:00 +15°C° 0 mm 1 mps 751 mmHg 86%
    04:00 +15°C° 0 mm 1 mps 751 mmHg 86%
    05:00 +16°C° 0 mm 1 mps 752 mmHg 83%
    06:00 +18°C° 0 mm 1 mps 752 mmHg 81%
    07:00 +19°C° 0 mm 1 mps 752 mmHg 78%
    08:00 +19°C° 0.1 mm 1 mps 752 mmHg 79%
    09:00 +18°C° 0.1 mm 2 mps 752 mmHg 81%
    10:00 +18°C° 0.1 mm 2 mps 752 mmHg 82%
    11:00 +20°C° 0 mm 2 mps 752 mmHg 74%
    12:00 +23°C° 0 mm 2 mps 752 mmHg 65%
    13:00 +25°C° 0 mm 2 mps 752 mmHg 56%
    14:00 +25°C° 0.4 mm 2 mps 752 mmHg 59%
    15:00 +25°C° 0.4 mm 2 mps 752 mmHg 61%
    16:00 +25°C° 0.4 mm 1 mps 752 mmHg 63%
    17:00 +24°C° 0.4 mm 2 mps 752 mmHg 70%
    18:00 +23°C° 0.4 mm 2 mps 752 mmHg 77%
    19:00 +20°C° 0.4 mm 2 mps 752 mmHg 84%
    20:00 +19°C° 0 mm 2 mps 752 mmHg 86%
    21:00 +18°C° 0 mm 2 mps 752 mmHg 88%
    22:00 +17°C° 0 mm 2 mps 752 mmHg 90%
    23:00 +17°C° 0 mm 2 mps 752 mmHg 90%

    21 July, Sunday

    Time Temperature Precipitation Wind Pressure Humidity
    00:00 +18°C° 0 mm 1 mps 752 mmHg 91%
    01:00 +16°C° 0 mm 1 mps 752 mmHg 91%
    02:00 +16°C° 0 mm 1 mps 752 mmHg 91%
    03:00 +16°C° 0 mm 1 mps 752 mmHg 92%
    04:00 +16°C° 0 mm 1 mps 752 mmHg 92%
    05:00 +18°C° 0 mm 1 mps 752 mmHg 90%
    06:00 +18°C° 0 mm 2 mps 752 mmHg 88%
    07:00 +19°C° 0 mm 2 mps 753 mmHg 86%
    08:00 +20°C° 0.1 mm 2 mps 753 mmHg 82%
    09:00 +21°C° 0.1 mm 2 mps 753 mmHg 79%
    10:00 +21°C° 0.1 mm 2 mps 753 mmHg 76%
    11:00 +23°C° 0.2 mm 2 mps 753 mmHg 70%
    12:00 +24°C° 0.2 mm 2 mps 753 mmHg 63%
    13:00 +26°C° 0.2 mm 2 mps 753 mmHg 57%
    14:00 +25°C° 0.1 mm 2 mps 753 mmHg 58%
    15:00 +25°C° 0.1 mm 2 mps 753 mmHg 60%
    16:00 +25°C° 0.1 mm 2 mps 753 mmHg 61%
    17:00 +24°C° 0.5 mm 1 mps 753 mmHg 68%
    18:00 +23°C° 0.5 mm 1 mps 753 mmHg 74%
    19:00 +22°C° 0.5 mm 1 mps 753 mmHg 81%
    20:00 +20°C° 0.1 mm 1 mps 753 mmHg 84%
    21:00 +19°C° 0.1 mm 1 mps 753 mmHg 87%
    22:00 +18°C° 0.1 mm 1 mps 753 mmHg 90%
    23:00 +16°C° 0 mm 1 mps 753 mmHg 91%
    Show more